Hourly Weather Sobiemirowo

Today, 22 January, Friday

Time Temperature Precipitation Wind Pressure Humidity
00:00 +2°C° 0 mm 6 mps 739 mmHg 88%
01:00 +2°C° 0 mm 6 mps 738 mmHg 88%
02:00 +3°C° 0.1 mm 7 mps 738 mmHg 88%
03:00 +4°C° 0.1 mm 8 mps 737 mmHg 88%
04:00 +4°C° 0.1 mm 8 mps 736 mmHg 88%
05:00 +4°C° 0.1 mm 8 mps 736 mmHg 86%
06:00 +4°C° 0.1 mm 8 mps 736 mmHg 84%
07:00 +2°C° 0.1 mm 8 mps 735 mmHg 82%
08:00 +2°C° 0 mm 8 mps 735 mmHg 80%
09:00 +3°C° 0 mm 9 mps 735 mmHg 77%
10:00 +3°C° 0 mm 9 mps 734 mmHg 75%
11:00 +4°C° 0 mm 8 mps 735 mmHg 75%
12:00 +5°C° 0 mm 8 mps 735 mmHg 74%
13:00 +5°C° 0 mm 7 mps 735 mmHg 74%
14:00 +4°C° 0.1 mm 6 mps 735 mmHg 79%
15:00 +3°C° 0.1 mm 5 mps 735 mmHg 85%
16:00 +4°C° 0.1 mm 3 mps 735 mmHg 91%
17:00 +3°C° 0 mm 3 mps 736 mmHg 92%
18:00 +2°C° 0 mm 3 mps 737 mmHg 92%
19:00 +2°C° 0 mm 2 mps 737 mmHg 93%
20:00 +2°C° 0 mm 2 mps 737 mmHg 93%
21:00 0°C° 0 mm 3 mps 738 mmHg 92%
22:00 0°C° 0 mm 3 mps 738 mmHg 92%
23:00 0°C° 0 mm 3 mps 739 mmHg 91%

Tomorrow, 23 January, Saturday

Time Temperature Precipitation Wind Pressure Humidity
00:00 +1°C° 0 mm 2 mps 739 mmHg 91%
01:00 -1°C° 0 mm 2 mps 739 mmHg 90%
02:00 +1°C° 0 mm 2 mps 739 mmHg 90%
03:00 +2°C° 0 mm 1 mps 739 mmHg 90%
04:00 +2°C° 0 mm 1 mps 739 mmHg 89%
05:00 +2°C° 0 mm 1 mps 740 mmHg 88%
06:00 +2°C° 0 mm 1 mps 740 mmHg 87%
07:00 +2°C° 0 mm 1 mps 740 mmHg 87%
08:00 +1°C° 0 mm 2 mps 739 mmHg 86%
09:00 0°C° 0 mm 3 mps 739 mmHg 85%
10:00 +1°C° 0 mm 3 mps 739 mmHg 84%
11:00 -1°C° 0.8 mm 4 mps 738 mmHg 87%
12:00 -1°C° 0.8 mm 5 mps 737 mmHg 91%
13:00 -2°C° 0.8 mm 6 mps 737 mmHg 94%
14:00 -2°C° 1.7 mm 6 mps 736 mmHg 95%
15:00 -2°C° 1.7 mm 7 mps 735 mmHg 96%
16:00 -2°C° 1.7 mm 7 mps 735 mmHg 97%
17:00 -2°C° 1.3 mm 6 mps 735 mmHg 98%
18:00 -2°C° 1.3 mm 6 mps 734 mmHg 98%
19:00 -1°C° 1.3 mm 6 mps 734 mmHg 98%
20:00 -1°C° 0.8 mm 6 mps 734 mmHg 98%
21:00 -1°C° 0.8 mm 6 mps 734 mmHg 98%
22:00 -1°C° 0.8 mm 7 mps 735 mmHg 98%
23:00 -1°C° 0.5 mm 7 mps 735 mmHg 97%

Day after tomorrow, 24 January, Sunday

Time Temperature Precipitation Wind Pressure Humidity
00:00 -1°C° 0.5 mm 7 mps 735 mmHg 97%
01:00 -1°C° 0.5 mm 8 mps 736 mmHg 97%
02:00 -2°C° 0.1 mm 7 mps 736 mmHg 96%
03:00 -2°C° 0.1 mm 6 mps 736 mmHg 95%
04:00 -2°C° 0.1 mm 6 mps 737 mmHg 95%
05:00 -1°C° 0 mm 5 mps 737 mmHg 95%
06:00 -1°C° 0 mm 4 mps 738 mmHg 95%
07:00 0°C° 0 mm 3 mps 738 mmHg 95%
08:00 0°C° 0 mm 3 mps 739 mmHg 94%
09:00 0°C° 0 mm 3 mps 739 mmHg 93%
10:00 0°C° 0 mm 3 mps 739 mmHg 92%
11:00 0°C° 0 mm 3 mps 739 mmHg 91%
12:00 0°C° 0 mm 4 mps 739 mmHg 90%
13:00 0°C° 0 mm 4 mps 739 mmHg 89%
14:00 0°C° 0 mm 3 mps 739 mmHg 90%
15:00 0°C° 0 mm 3 mps 740 mmHg 91%
16:00 +1°C° 0 mm 2 mps 740 mmHg 93%
17:00 -1°C° 0 mm 2 mps 740 mmHg 92%
18:00 -1°C° 0 mm 2 mps 740 mmHg 92%
19:00 -1°C° 0 mm 2 mps 740 mmHg 91%
20:00 -1°C° 0 mm 2 mps 740 mmHg 90%
21:00 -1°C° 0 mm 2 mps 740 mmHg 90%
22:00 -2°C° 0 mm 3 mps 740 mmHg 89%
23:00 -2°C° 0 mm 2 mps 740 mmHg 90%

25 January, Monday

Time Temperature Precipitation Wind Pressure Humidity
00:00 -2°C° 0 mm 2 mps 740 mmHg 90%
01:00 -2°C° 0 mm 2 mps 740 mmHg 91%
02:00 -2°C° 0.1 mm 2 mps 740 mmHg 93%
03:00 -2°C° 0.1 mm 2 mps 740 mmHg 95%
04:00 -1°C° 0.1 mm 3 mps 740 mmHg 97%
05:00 -1°C° 0.3 mm 3 mps 741 mmHg 96%
06:00 -2°C° 0.3 mm 4 mps 741 mmHg 96%
07:00 -2°C° 0.3 mm 4 mps 741 mmHg 96%
08:00 -2°C° 0.2 mm 5 mps 742 mmHg 94%
09:00 -2°C° 0.2 mm 5 mps 742 mmHg 92%
10:00 -3°C° 0.2 mm 6 mps 742 mmHg 90%
11:00 -3°C° 0 mm 6 mps 743 mmHg 88%
12:00 -3°C° 0 mm 6 mps 743 mmHg 86%
13:00 -3°C° 0 mm 6 mps 743 mmHg 84%
14:00 -3°C° 0 mm 6 mps 743 mmHg 85%
15:00 -2°C° 0 mm 5 mps 743 mmHg 86%
16:00 -2°C° 0 mm 5 mps 744 mmHg 87%
17:00 -2°C° 0.4 mm 5 mps 744 mmHg 90%
18:00 -2°C° 0.4 mm 5 mps 744 mmHg 93%
19:00 -2°C° 0.4 mm 5 mps 745 mmHg 96%
20:00 -2°C° 0.4 mm 5 mps 745 mmHg 95%
21:00 -2°C° 0.4 mm 5 mps 745 mmHg 95%
22:00 -2°C° 0.4 mm 4 mps 745 mmHg 95%
23:00 -2°C° 0.4 mm 4 mps 746 mmHg 96%

26 January, Tuesday

Time Temperature Precipitation Wind Pressure Humidity
00:00 -2°C° 0.4 mm 4 mps 746 mmHg 96%
01:00 -2°C° 0.4 mm 4 mps 746 mmHg 96%
02:00 -2°C° 0.3 mm 4 mps 746 mmHg 96%
03:00 -3°C° 0.3 mm 4 mps 746 mmHg 96%
04:00 -3°C° 0.3 mm 4 mps 746 mmHg 95%
05:00 -3°C° 0.1 mm 4 mps 747 mmHg 95%
06:00 -3°C° 0.1 mm 4 mps 747 mmHg 96%
07:00 -3°C° 0.1 mm 4 mps 747 mmHg 96%
08:00 -2°C° 0.7 mm 5 mps 747 mmHg 96%
09:00 -2°C° 0.7 mm 5 mps 747 mmHg 96%
10:00 -2°C° 0.7 mm 5 mps 748 mmHg 96%
11:00 -2°C° 0.3 mm 6 mps 748 mmHg 94%
12:00 -2°C° 0.3 mm 6 mps 748 mmHg 92%
13:00 -2°C° 0.3 mm 6 mps 748 mmHg 90%
14:00 -2°C° 0 mm 6 mps 748 mmHg 89%
15:00 -2°C° 0 mm 6 mps 748 mmHg 88%
16:00 -1°C° 0 mm 5 mps 749 mmHg 87%
17:00 -2°C° 0 mm 5 mps 749 mmHg 88%
18:00 -4°C° 0 mm 5 mps 749 mmHg 88%
19:00 -3°C° 0 mm 4 mps 749 mmHg 89%
20:00 -3°C° 0 mm 4 mps 749 mmHg 90%
21:00 -4°C° 0 mm 4 mps 748 mmHg 91%
22:00 -4°C° 0 mm 4 mps 748 mmHg 92%
23:00 -4°C° 0.1 mm 4 mps 748 mmHg 94%

27 January, Wednesday

Time Temperature Precipitation Wind Pressure Humidity
00:00 -2°C° 0.1 mm 3 mps 748 mmHg 95%
01:00 -2°C° 0.1 mm 3 mps 747 mmHg 97%
02:00 -1°C° 0.1 mm 3 mps 747 mmHg 97%
03:00 -2°C° 0.1 mm 4 mps 747 mmHg 97%
04:00 -2°C° 0.1 mm 4 mps 746 mmHg 97%
05:00 -2°C° 0.1 mm 4 mps 746 mmHg 97%
06:00 -1°C° 0.1 mm 3 mps 746 mmHg 97%
07:00 -1°C° 0.1 mm 3 mps 746 mmHg 97%
08:00 -1°C° 0 mm 3 mps 746 mmHg 96%
09:00 -1°C° 0 mm 3 mps 747 mmHg 95%
10:00 -2°C° 0 mm 3 mps 747 mmHg 94%
11:00 -1°C° 0 mm 3 mps 747 mmHg 95%
12:00 -1°C° 0 mm 3 mps 747 mmHg 95%
13:00 0°C° 0 mm 3 mps 747 mmHg 96%
14:00 0°C° 0 mm 3 mps 748 mmHg 95%
15:00 -1°C° 0 mm 3 mps 748 mmHg 95%
16:00 -1°C° 0 mm 3 mps 748 mmHg 95%
17:00 -1°C° 0 mm 3 mps 749 mmHg 94%
18:00 -1°C° 0 mm 3 mps 749 mmHg 94%
19:00 -1°C° 0 mm 3 mps 749 mmHg 94%
20:00 -2°C° 0 mm 3 mps 750 mmHg 93%
21:00 -2°C° 0 mm 3 mps 750 mmHg 93%
22:00 -2°C° 0 mm 3 mps 750 mmHg 93%
23:00 -4°C° 0 mm 3 mps 750 mmHg 94%
Show more